WD6AWP Weather Reports


time (UTC)temp
C
wind
direction
speed
KPH
gust
KPH
rain 1hr
cm
rain 24hr
cm
rain mn
cm
humidity
%
barometer
mb
20260507203003 21 229 4.8 14.5 0.00 0.00 0.00 76 1015.3
20260507201501 21 213 8.0 16.1 0.00 0.00 0.00 76 1015.3
20260507200100 20 198 8.0 14.5 0.00 0.00 0.00 76 1015.4
20260507194600 21 200 4.8 16.1 0.00 0.00 0.00 76 1015.6
20260507193057 21 189 8.0 17.7 0.00 0.00 0.00 77 1015.7
20260507191558 20 216 6.4 14.5 0.00 0.00 0.00 77 1015.9
20260507190056 21 218 6.4 17.7 0.00 0.00 0.00 76 1016.0
20260507184555 21 196 6.4 14.5 0.00 0.00 0.00 76 1016.2
20260507183053 20 220 3.2 11.3 0.00 0.00 0.00 77 1016.4
20260507181553 20 273 6.4 14.5 0.00 0.00 0.00 76 1016.3
20260507180058 20 231 3.2 12.9 0.00 0.00 0.00 76 1016.4
20260507174604 20 205 0.0 16.1 0.00 0.00 0.00 78 1016.3
20260507173051 20 195 4.8 14.5 0.00 0.00 0.00 76 1016.4
20260507171603 20 252 4.8 14.5 0.00 0.00 0.00 77 1016.5
20260507170050 20 227 1.6 14.5 0.00 0.00 0.00 77 1016.5
20260507164550 20 240 3.2 14.5 0.00 0.00 0.00 77 1016.5
20260507163050 20 229 3.2 11.3 0.00 0.00 0.00 78 1016.5
20260507161546 20 240 4.8 11.3 0.00 0.00 0.00 79 1016.5
20260507160048 19 227 1.6 8.0 0.00 0.00 0.00 79 1016.5
20260507154542 19 218 0.0 3.2 0.00 0.00 0.00 80 1016.6
20260507153044 19 229 0.0 3.2 0.00 0.00 0.00 80 1016.6
20260507151535 18 340 0.0 0.0 0.00 0.00 0.00 84 1016.8
20260507150034 17 325 0.0 0.0 0.00 0.00 0.00 88 1016.7
20260507144534 17 304 0.0 0.0 0.00 0.00 0.00 93 1016.6
20260507143025 16 294 0.0 0.0 0.00 0.00 0.00 97 1016.5
20260507141523 15 289 0.0 0.0 0.00 0.00 0.00 98 1016.3
20260507140021 13 288 0.0 0.0 0.00 0.00 0.00 96 1016.2
20260507134520 12 288 0.0 0.0 0.00 0.00 0.00 96 1016.1
20260507133020 12 288 0.0 0.0 0.00 0.00 0.00 94 1015.9
20260507131518 12 288 0.0 0.0 0.00 0.00 0.00 95 1015.8
20260507130025 12 288 0.0 0.0 0.00 0.00 0.00 94 1015.7
20260507124522 12 288 0.0 0.0 0.00 0.00 0.00 94 1015.7
20260507123016 12 288 0.0 0.0 0.00 0.00 0.00 94 1015.6
20260507121514 12 288 0.0 0.0 0.00 0.00 0.00 94 1015.6
20260507120013 12 288 0.0 0.0 0.00 0.00 0.00 93 1015.7
20260507114512 12 288 0.0 0.0 0.00 0.00 0.00 93 1015.7
20260507113015 12 288 0.0 0.0 0.00 0.00 0.00 93 1015.8
20260507111513 12 288 0.0 0.0 0.00 0.00 0.00 93 1015.8
20260507110022 12 288 0.0 0.0 0.00 0.00 0.00 93 1016.0
20260507104506 12 288 0.0 0.0 0.00 0.00 0.00 92 1016.0
20260507103004 13 288 0.0 0.0 0.00 0.00 0.00 92 1016.1
20260507101503 13 288 0.0 0.0 0.00 0.00 0.00 92 1016.2
20260507100003 13 288 0.0 0.0 0.00 0.00 0.00 92 1016.2
20260507094559 13 288 0.0 0.0 0.00 0.00 0.00 92 1016.3
20260507093057 13 288 0.0 0.0 0.00 0.00 0.00 92 1016.3
20260507091555 13 288 0.0 0.0 0.00 0.00 0.00 92 1016.5
20260507090055 13 288 0.0 0.0 0.00 0.00 0.00 91 1016.7
20260507084551 14 288 0.0 0.0 0.00 0.00 0.00 91 1016.8
20260507083048 14 288 0.0 0.0 0.00 0.00 0.00 91 1016.9
20260507081546 14 288 0.0 0.0 0.00 0.00 0.00 91 1017.0
20260507080045 14 288 0.0 0.0 0.00 0.00 0.00 92 1017.1
20260507074556 15 288 0.0 0.0 0.00 0.00 0.00 92 1017.0
20260507073046 15 288 0.0 0.0 0.00 0.00 0.00 91 1017.0
20260507071541 15 288 0.0 0.0 0.00 0.00 0.00 91 1017.0
20260507070048 15 288 0.0 0.0 0.00 0.00 0.00 90 1017.2
20260507064538 15 288 0.0 0.0 0.00 0.00 0.00 90 1017.2
20260507063052 15 288 0.0 0.0 0.00 0.00 0.00 90 1017.3
20260507061537 15 288 0.0 0.0 0.00 0.00 0.00 89 1017.3
20260507060044 16 288 0.0 0.0 0.00 0.00 0.00 90 1017.3
20260507054542 16 288 0.0 11.3 0.00 0.00 0.00 89 1017.3
20260507053039 16 277 3.2 12.9 0.00 0.00 0.00 89 1017.3
20260507051536 16 278 4.8 12.9 0.00 0.00 0.00 89 1017.3
20260507050037 16 263 4.8 14.5 0.00 0.00 0.00 89 1017.2
20260507044534 16 272 4.8 14.5 0.00 0.00 0.00 89 1017.2
20260507043037 16 265 6.4 16.1 0.00 0.00 0.00 88 1017.1
20260507041533 16 276 3.2 12.9 0.00 0.00 0.00 87 1017.1
20260507040034 16 275 6.4 11.3 0.00 0.00 0.00 87 1016.9
20260507034537 16 277 3.2 12.9 0.00 0.00 0.00 86 1016.7
20260507033032 16 262 3.2 11.3 0.00 0.00 0.00 85 1016.6
20260507031530 16 288 4.8 16.1 0.00 0.00 0.00 85 1016.4
20260507030031 17 284 9.7 22.5 0.00 0.00 0.00 85 1016.3
20260507024530 17 267 9.7 17.7 0.00 0.00 0.00 84 1016.2
20260507023029 17 280 11.3 22.5 0.00 0.00 0.00 83 1016.0
20260507021530 17 281 12.9 24.1 0.00 0.00 0.00 82 1016.0
20260507020039 17 252 14.5 25.7 0.00 0.00 0.00 81 1015.8
20260507014528 17 269 17.7 25.7 0.00 0.00 0.00 82 1015.7
20260507013044 18 274 16.1 30.6 0.00 0.00 0.00 82 1015.7
20260507011526 18 286 12.9 29.0 0.00 0.00 0.00 82 1015.6
20260507010034 18 270 20.9 32.2 0.00 0.00 0.00 81 1015.6
20260507004525 18 277 20.9 37.0 0.00 0.00 0.00 80 1015.5
20260507003025 19 276 16.1 33.8 0.00 0.00 0.00 79 1015.6
20260507001529 20 259 17.7 32.2 0.00 0.00 0.00 78 1015.5
20260507000023 20 277 14.5 35.4 0.00 0.00 0.00 77 1015.5
20260506234529 20 265 19.3 30.6 0.00 0.00 0.00 76 1015.4
20260506233022 20 261 19.3 32.2 0.00 0.00 0.00 76 1015.5
20260506231519 20 281 22.5 30.6 0.00 0.00 0.00 74 1015.6
20260506230021 21 281 11.3 24.1 0.00 0.00 0.00 75 1015.8
20260506224517 21 304 16.1 27.4 0.00 0.00 0.00 74 1016.0
20260506223013 20 298 12.9 25.7 0.00 0.00 0.00 74 1016.2
20260506221511 21 269 16.1 27.4 0.00 0.00 0.00 72 1016.3
20260506220020 21 255 9.7 22.5 0.00 0.00 0.00 69 1016.6
20260506214509 22 257 11.3 27.4 0.00 0.00 0.00 65 1016.7
20260506213006 22 241 8.0 17.7 0.00 0.00 0.00 66 1016.8
20260506211502 22 225 9.7 22.5 0.00 0.00 0.00 63 1016.9
20260506210007 22 236 8.0 17.7 0.00 0.00 0.00 64 1017.1
20260506204601 21 234 9.7 17.7 0.00 0.00 0.00 64 1017.2